| time (UTC) | temp F | wind direction | speed knots | gust knots | rain 1hr in | rain 24hr in | rain mn in | humidity % | barometer mb |
| 20260507141600 | 51 | 248 | 3.5 | 13.0 | 0.00 | 0.16 | 0.01 | 68 | 1008.0 |
| 20260507140057 | 51 | 186 | 2.6 | 9.6 | 0.00 | 0.16 | 0.01 | 71 | 1007.7 |
| 20260507134550 | 52 | 192 | 4.3 | 11.3 | 0.00 | 0.16 | 0.01 | 67 | 1007.6 |
| 20260507133047 | 51 | 161 | 1.7 | 7.0 | 0.01 | 0.16 | 0.01 | 70 | 1007.7 |
| 20260507131544 | 52 | 158 | 3.5 | 11.3 | 0.01 | 0.16 | 0.01 | 69 | 1007.8 |
| 20260507130042 | 51 | 269 | 0.9 | 10.4 | 0.01 | 0.16 | 0.01 | 73 | 1008.0 |
| 20260507124539 | 51 | 217 | 2.6 | 7.8 | 0.01 | 0.16 | 0.01 | 75 | 1007.9 |
| 20260507123043 | 50 | 285 | 3.5 | 8.7 | 0.00 | 0.15 | 0.00 | 74 | 1007.8 |
| 20260507121537 | 49 | 191 | 2.6 | 7.8 | 0.00 | 0.15 | 0.00 | 76 | 1007.8 |
| 20260507120033 | 49 | 291 | 3.5 | 7.8 | 0.00 | 0.15 | 0.00 | 80 | 1007.8 |
| 20260507114532 | 48 | 139 | 3.5 | 11.3 | 0.00 | 0.15 | 0.00 | 79 | 1008.0 |
| 20260507113030 | 48 | 224 | 0.9 | 9.6 | 0.00 | 0.15 | 0.00 | 83 | 1007.7 |
| 20260507111536 | 46 | 283 | 0.9 | 3.5 | 0.00 | 0.15 | 0.00 | 86 | 1007.7 |
| 20260507110031 | 44 | 137 | 0.0 | 3.5 | 0.00 | 0.15 | 0.00 | 89 | 1007.7 |
| 20260507104526 | 44 | 71 | 0.0 | 2.6 | 0.00 | 0.15 | 0.00 | 88 | 1007.3 |
| 20260507103027 | 44 | 70 | 0.0 | 2.6 | 0.00 | 0.15 | 0.00 | 89 | 1007.2 |
| 20260507101524 | 44 | 70 | 0.0 | 0.0 | 0.00 | 0.15 | 0.00 | 90 | 1007.1 |
| 20260507100023 | 44 | 101 | 0.9 | 5.2 | 0.00 | 0.15 | 0.00 | 91 | 1007.2 |
| 20260507094524 | 45 | 218 | 0.9 | 1.7 | 0.00 | 0.15 | 0.00 | 90 | 1007.0 |
| 20260507093019 | 45 | 218 | 0.0 | 1.7 | 0.00 | 0.15 | 0.00 | 90 | 1007.1 |
| 20260507091518 | 45 | 218 | 0.0 | 2.6 | 0.00 | 0.15 | 0.00 | 89 | 1007.4 |
| 20260507090017 | 45 | 143 | 0.0 | 1.7 | 0.00 | 0.15 | 0.00 | 90 | 1007.4 |
| 20260507084617 | 45 | 188 | 0.0 | 0.0 | 0.00 | 0.15 | 0.00 | 90 | 1007.7 |
| 20260507083020 | 45 | 202 | 0.0 | 0.0 | 0.00 | 0.15 | 0.00 | 91 | 1007.2 |
| 20260507081527 | 45 | 205 | 0.0 | 0.0 | 0.00 | 0.15 | 0.00 | 90 | 1007.0 |
| 20260507080013 | 45 | 205 | 0.0 | 1.7 | 0.00 | 0.15 | 0.00 | 89 | 1006.8 |
| 20260507074509 | 46 | 211 | 0.0 | 1.7 | 0.00 | 0.15 | 0.00 | 89 | 1006.8 |
| 20260507073009 | 46 | 211 | 0.9 | 2.6 | 0.00 | 0.15 | 0.00 | 86 | 1007.3 |
| 20260507071507 | 46 | 170 | 0.0 | 3.5 | 0.00 | 0.15 | 0.00 | 87 | 1007.0 |
| 20260507070010 | 46 | 24 | 0.0 | 1.7 | 0.00 | 0.15 | 0.00 | 88 | 1006.7 |
| 20260507064504 | 46 | 60 | 0.9 | 3.5 | 0.00 | 0.15 | 0.00 | 88 | 1006.3 |
| 20260507063003 | 47 | 22 | 0.9 | 5.2 | 0.00 | 0.15 | 0.00 | 88 | 1006.5 |
| 20260507061601 | 47 | 30 | 0.0 | 3.5 | 0.00 | 0.15 | 0.00 | 87 | 1006.5 |
| 20260507060059 | 47 | 138 | 0.9 | 3.5 | 0.00 | 0.15 | 0.00 | 88 | 1006.5 |
| 20260507054607 | 48 | 169 | 0.9 | 3.5 | 0.00 | 0.15 | 0.00 | 88 | 1006.7 |
| 20260507053054 | 48 | 281 | 0.0 | 2.6 | 0.00 | 0.15 | 0.00 | 89 | 1006.9 |
| 20260507051554 | 48 | 255 | 0.0 | 3.5 | 0.00 | 0.15 | 0.00 | 89 | 1006.9 |
| 20260507050049 | 49 | 26 | 0.9 | 3.5 | 0.00 | 0.15 | 0.00 | 89 | 1007.0 |
| 20260507044547 | 49 | 135 | 0.0 | 1.7 | 0.00 | 0.15 | 0.00 | 91 | 1006.8 |
| 20260507043045 | 49 | 102 | 0.0 | 7.0 | 0.00 | 0.15 | 0.00 | 90 | 1006.3 |
| 20260507041552 | 50 | 290 | 2.6 | 7.8 | 0.00 | 0.15 | 0.00 | 91 | 1006.4 |
| 20260507040037 | 50 | 163 | 1.7 | 7.0 | 0.00 | 0.15 | 0.15 | 91 | 1006.5 |
| 20260507034537 | 50 | 198 | 0.9 | 6.1 | 0.00 | 0.15 | 0.15 | 91 | 1006.2 |
| 20260507033035 | 51 | 349 | 2.6 | 7.8 | 0.01 | 0.15 | 0.15 | 90 | 1006.0 |
| 20260507031531 | 51 | 298 | 2.6 | 8.7 | 0.02 | 0.15 | 0.15 | 91 | 1005.9 |
| 20260507030029 | 52 | 284 | 2.6 | 11.3 | 0.02 | 0.15 | 0.15 | 91 | 1005.7 |
| 20260507024525 | 53 | 323 | 4.3 | 11.3 | 0.02 | 0.15 | 0.15 | 91 | 1005.7 |
| 20260507023021 | 54 | 210 | 4.3 | 13.9 | 0.02 | 0.14 | 0.14 | 89 | 1006.1 |
| 20260507021516 | 56 | 192 | 4.3 | 13.0 | 0.01 | 0.13 | 0.13 | 91 | 1005.7 |
| 20260507020014 | 57 | 215 | 2.6 | 7.8 | 0.01 | 0.13 | 0.13 | 91 | 1005.0 |
| 20260507014520 | 58 | 198 | 0.9 | 7.8 | 0.01 | 0.13 | 0.13 | 92 | 1005.1 |
| 20260507013029 | 58 | 153 | 1.7 | 5.2 | 0.00 | 0.12 | 0.12 | 93 | 1005.0 |
| 20260507011511 | 58 | 164 | 3.5 | 9.6 | 0.00 | 0.12 | 0.12 | 93 | 1004.7 |
| 20260507010006 | 58 | 130 | 3.5 | 9.6 | 0.00 | 0.12 | 0.12 | 92 | 1004.8 |
| 20260507004504 | 59 | 128 | 4.3 | 13.0 | 0.00 | 0.12 | 0.12 | 92 | 1004.6 |
| 20260507003002 | 59 | 126 | 5.2 | 12.2 | 0.00 | 0.12 | 0.12 | 92 | 1004.5 |
| 20260507001502 | 59 | 180 | 2.6 | 9.6 | 0.00 | 0.12 | 0.12 | 92 | 1004.2 |
| 20260507000101 | 59 | 175 | 2.6 | 10.4 | 0.00 | 0.12 | 0.12 | 92 | 1004.3 |
| 20260506234559 | 59 | 113 | 1.7 | 11.3 | 0.00 | 0.12 | 0.12 | 91 | 1004.1 |
| 20260506233107 | 59 | 128 | 3.5 | 10.4 | 0.00 | 0.12 | 0.12 | 91 | 1003.9 |
| 20260506231558 | 59 | 167 | 4.3 | 11.3 | 0.00 | 0.12 | 0.12 | 91 | 1004.0 |
| 20260506230057 | 59 | 142 | 2.6 | 10.4 | 0.00 | 0.12 | 0.12 | 92 | 1004.0 |
| 20260506224555 | 59 | 250 | 2.6 | 10.4 | 0.00 | 0.12 | 0.12 | 92 | 1004.1 |
| 20260506223108 | 59 | 126 | 0.9 | 7.0 | 0.00 | 0.12 | 0.12 | 92 | 1004.2 |
| 20260506221557 | 59 | 155 | 5.2 | 13.0 | 0.01 | 0.12 | 0.12 | 91 | 1004.3 |
| 20260506220051 | 59 | 155 | 4.3 | 13.9 | 0.02 | 0.12 | 0.12 | 92 | 1004.3 |
| 20260506214600 | 59 | 162 | 5.2 | 13.0 | 0.02 | 0.12 | 0.12 | 92 | 1004.3 |
| 20260506213050 | 59 | 122 | 0.0 | 6.1 | 0.02 | 0.12 | 0.12 | 93 | 1004.3 |
| 20260506211549 | 59 | 163 | 4.3 | 9.6 | 0.02 | 0.11 | 0.11 | 92 | 1004.3 |
| 20260506210050 | 59 | 146 | 5.2 | 17.4 | 0.02 | 0.10 | 0.10 | 92 | 1004.3 |
| 20260506204545 | 59 | 189 | 4.3 | 8.7 | 0.02 | 0.10 | 0.10 | 93 | 1004.5 |
| 20260506203046 | 60 | 140 | 7.0 | 12.2 | 0.04 | 0.10 | 0.10 | 92 | 1004.6 |
| 20260506201542 | 60 | 122 | 1.7 | 7.0 | 0.03 | 0.09 | 0.09 | 92 | 1004.7 |
| 20260506194540 | 60 | 87 | 3.5 | 10.4 | 0.03 | 0.08 | 0.08 | 91 | 1005.0 |
| 20260506193041 | 61 | 132 | 2.6 | 7.8 | 0.01 | 0.06 | 0.06 | 90 | 1005.1 |
| 20260506191538 | 61 | 132 | 3.5 | 7.8 | 0.02 | 0.06 | 0.06 | 90 | 1005.2 |
| 20260506190036 | 61 | 175 | 1.7 | 7.8 | 0.02 | 0.06 | 0.06 | 91 | 1005.1 |
| 20260506184535 | 61 | 145 | 3.5 | 7.0 | 0.03 | 0.05 | 0.05 | 90 | 1005.1 |
| 20260506183034 | 61 | 121 | 3.5 | 7.0 | 0.04 | 0.05 | 0.05 | 90 | 1005.5 |
| 20260506181535 | 61 | 132 | 0.9 | 3.5 | 0.04 | 0.04 | 0.04 | 89 | 1006.0 |
| 20260506180035 | 61 | 121 | 0.9 | 2.6 | 0.04 | 0.04 | 0.04 | 87 | 1006.2 |
| 20260506174528 | 62 | 184 | 0.0 | 4.3 | 0.02 | 0.02 | 0.02 | 85 | 1006.4 |
| 20260506173024 | 63 | 232 | 0.9 | 6.1 | 0.01 | 0.01 | 0.01 | 80 | 1006.6 |
| 20260506171538 | 64 | 132 | 4.3 | 13.9 | 0.00 | 0.00 | 0.00 | 75 | 1006.5 |
| 20260506170023 | 65 | 147 | 4.3 | 12.2 | 0.00 | 0.00 | 0.00 | 72 | 1006.4 |
| 20260506164525 | 65 | 138 | 4.3 | 12.2 | 0.00 | 0.00 | 0.00 | 71 | 1006.5 |
| 20260506163025 | 66 | 126 | 3.5 | 13.9 | 0.00 | 0.00 | 0.00 | 70 | 1006.5 |
| 20260506161534 | 66 | 116 | 3.5 | 16.5 | 0.00 | 0.00 | 0.00 | 70 | 1006.9 |
| 20260506160018 | 66 | 125 | 6.1 | 12.2 | 0.00 | 0.00 | 0.00 | 69 | 1007.0 |
| 20260506154518 | 66 | 232 | 4.3 | 18.2 | 0.00 | 0.00 | 0.00 | 69 | 1007.2 |
| 20260506153017 | 66 | 141 | 3.5 | 10.4 | 0.00 | 0.00 | 0.00 | 69 | 1007.5 |
| 20260506151517 | 66 | 196 | 3.5 | 13.0 | 0.00 | 0.00 | 0.00 | 70 | 1007.6 |
| 20260506150022 | 66 | 167 | 8.7 | 18.2 | 0.00 | 0.00 | 0.00 | 69 | 1007.8 |
| 20260506144513 | 67 | 165 | 1.7 | 12.2 | 0.00 | 0.00 | 0.00 | 70 | 1007.3 |